Location: Heraklion
(35.3387°N, 25.1442°E)
Time: 10:33:00
(UTC+02:00)

STARLINK-5122 - Pass Details

Date: 07 December 2022
Orbit: 539 x 540 km, 53.2° (Epoch: 06 February)

Event Time Altitude Azimuth Distance (km) Brightness Sun altitude
Rises 17:26:27 0° 234° (SW) 2,679 ? -4.4°
Reaches altitude 10° 17:28:42 10° 239° (WSW) 1,791 ? -4.9°
Maximum altitude 17:32:42 56° 318° (NW) 642 ? -5.6°
Drops below altitude 10° 17:36:43 10° 38° (NE) 1,800 ? -6.4°
Enters shadow 17:37:41 - 40° (NE) 2,176 ? -6.5°
